| time (UTC) | temp C | wind direction | speed KPH | gust KPH | rain 1hr cm | rain 24hr cm | rain mn cm | humidity % | barometer mb |
| 20260506163036 | 19 | 79 | 16.1 | 20.9 | 0.00 | 0.28 | 0.28 | 82 | 1007.1 |
| 20260506162537 | 20 | 85 | 12.9 | 24.1 | 0.00 | 0.28 | 0.28 | 79 | 1007.1 |
| 20260506162036 | 20 | 95 | 12.9 | 24.1 | 0.00 | 0.28 | 0.28 | 81 | 1007.1 |
| 20260506161536 | 20 | 83 | 16.1 | 22.5 | 0.00 | 0.28 | 0.28 | 80 | 1007.0 |
| 20260506160536 | 20 | 86 | 12.9 | 19.3 | 0.00 | 0.28 | 0.28 | 80 | 1007.1 |
| 20260506160036 | 20 | 77 | 11.3 | 19.3 | 0.00 | 0.28 | 0.28 | 81 | 1007.1 |
| 20260506155539 | 20 | 87 | 12.9 | 20.9 | 0.00 | 0.28 | 0.28 | 82 | 1007.0 |
| 20260506155036 | 20 | 76 | 16.1 | 22.5 | 0.00 | 0.28 | 0.28 | 80 | 1007.0 |
| 20260506154536 | 20 | 82 | 9.7 | 19.3 | 0.00 | 0.28 | 0.28 | 77 | 1007.0 |
| 20260506154036 | 20 | 85 | 9.7 | 20.9 | 0.00 | 0.28 | 0.28 | 80 | 1007.1 |
| 20260506153036 | 21 | 38 | 9.7 | 14.5 | 0.00 | 0.28 | 0.28 | 82 | 1007.0 |
| 20260506151536 | 20 | 45 | 14.5 | 20.9 | 0.00 | 0.28 | 0.28 | 83 | 1007.0 |
| 20260506151036 | 20 | 86 | 16.1 | 19.3 | 0.00 | 0.28 | 0.28 | 83 | 1007.0 |
| 20260506150536 | 20 | 67 | 16.1 | 20.9 | 0.00 | 0.28 | 0.28 | 83 | 1007.1 |
| 20260506145037 | 20 | 64 | 12.9 | 19.3 | 0.00 | 0.28 | 0.28 | 84 | 1007.1 |
| 20260506144551 | 20 | 68 | 11.3 | 19.3 | 0.00 | 0.28 | 0.28 | 84 | 1007.2 |
| 20260506143537 | 20 | 76 | 11.3 | 16.1 | 0.00 | 0.28 | 0.28 | 85 | 1007.4 |
| 20260506143036 | 20 | 50 | 9.7 | 16.1 | 0.00 | 0.28 | 0.28 | 84 | 1007.5 |
| 20260506142536 | 20 | 88 | 12.9 | 24.1 | 0.00 | 0.28 | 0.28 | 83 | 1007.5 |
| 20260506142039 | 21 | 99 | 11.3 | 24.1 | 0.00 | 0.28 | 0.28 | 83 | 1007.4 |
| 20260506141035 | 20 | 65 | 16.1 | 20.9 | 0.00 | 0.28 | 0.28 | 83 | 1007.3 |
| 20260506140535 | 20 | 57 | 11.3 | 19.3 | 0.00 | 0.28 | 0.28 | 85 | 1007.5 |
| 20260506140035 | 20 | 78 | 12.9 | 16.1 | 0.00 | 0.28 | 0.28 | 84 | 1007.7 |
| 20260506135038 | 20 | 68 | 9.7 | 19.3 | 0.00 | 0.28 | 0.28 | 83 | 1007.8 |
| 20260506134536 | 20 | 67 | 9.7 | 14.5 | 0.00 | 0.28 | 0.28 | 83 | 1007.8 |
| 20260506134035 | 20 | 67 | 9.7 | 19.3 | 0.00 | 0.28 | 0.28 | 83 | 1007.9 |
| 20260506133536 | 20 | 50 | 14.5 | 19.3 | 0.00 | 0.28 | 0.28 | 83 | 1007.9 |
| 20260506133037 | 20 | 91 | 11.3 | 19.3 | 0.00 | 0.28 | 0.28 | 84 | 1008.0 |
| 20260506132539 | 20 | 68 | 11.3 | 20.9 | 0.00 | 0.28 | 0.28 | 85 | 1008.1 |
| 20260506132036 | 20 | 61 | 9.7 | 12.9 | 0.00 | 0.28 | 0.28 | 85 | 1008.1 |
| 20260506131536 | 20 | 96 | 11.3 | 16.1 | 0.00 | 0.28 | 0.28 | 83 | 1008.0 |
| 20260506130539 | 19 | 66 | 8.0 | 11.3 | 0.00 | 0.28 | 0.28 | 87 | 1008.2 |
| 20260506130035 | 19 | 39 | 9.7 | 14.5 | 0.00 | 0.28 | 0.28 | 86 | 1008.3 |
| 20260506125536 | 19 | 68 | 6.4 | 16.1 | 0.00 | 0.28 | 0.28 | 87 | 1008.4 |
| 20260506125039 | 18 | 64 | 11.3 | 16.1 | 0.00 | 0.28 | 0.28 | 88 | 1008.4 |
| 20260506124537 | 18 | 74 | 11.3 | 16.1 | 0.00 | 0.28 | 0.28 | 87 | 1008.5 |
| 20260506124037 | 18 | 81 | 6.4 | 16.1 | 0.00 | 0.28 | 0.28 | 87 | 1008.5 |
| 20260506123535 | 18 | 77 | 9.7 | 19.3 | 0.00 | 0.28 | 0.28 | 87 | 1008.5 |
| 20260506123054 | 18 | 61 | 9.7 | 16.1 | 0.00 | 0.28 | 0.28 | 87 | 1008.4 |
| 20260506122535 | 18 | 91 | 11.3 | 20.9 | 0.00 | 0.28 | 0.28 | 88 | 1008.5 |
| 20260506122036 | 18 | 92 | 11.3 | 19.3 | 0.00 | 0.28 | 0.28 | 87 | 1008.5 |
| 20260506121535 | 18 | 71 | 11.3 | 19.3 | 0.00 | 0.28 | 0.28 | 88 | 1008.6 |
| 20260506121036 | 18 | 99 | 11.3 | 19.3 | 0.00 | 0.28 | 0.28 | 88 | 1008.6 |
| 20260506120535 | 18 | 90 | 19.3 | 25.7 | 0.00 | 0.28 | 0.28 | 87 | 1008.5 |
| 20260506120035 | 18 | 119 | 11.3 | 24.1 | 0.00 | 0.28 | 0.28 | 87 | 1008.5 |
| 20260506115536 | 18 | 87 | 11.3 | 19.3 | 0.00 | 0.28 | 0.28 | 88 | 1008.5 |
| 20260506115035 | 18 | 54 | 9.7 | 20.9 | 0.00 | 0.28 | 0.28 | 87 | 1008.5 |
| 20260506114535 | 18 | 88 | 17.7 | 25.7 | 0.00 | 0.28 | 0.28 | 87 | 1008.5 |
| 20260506114035 | 18 | 70 | 14.5 | 25.7 | 0.00 | 0.28 | 0.28 | 86 | 1008.4 |
| 20260506113035 | 18 | 99 | 16.1 | 27.4 | 0.00 | 0.28 | 0.28 | 87 | 1008.3 |
| 20260506112035 | 18 | 96 | 20.9 | 27.4 | 0.00 | 0.28 | 0.28 | 87 | 1008.5 |
| 20260506111537 | 18 | 110 | 19.3 | 33.8 | 0.00 | 0.28 | 0.28 | 88 | 1008.5 |
| 20260506110536 | 17 | 102 | 14.5 | 24.1 | 0.00 | 0.28 | 0.28 | 90 | 1008.6 |
| 20260506110052 | 17 | 90 | 11.3 | 24.1 | 0.00 | 0.28 | 0.28 | 90 | 1008.6 |
| 20260506105535 | 17 | 73 | 19.3 | 27.4 | 0.00 | 0.28 | 0.28 | 90 | 1008.6 |
| 20260506105036 | 17 | 92 | 16.1 | 25.7 | 0.00 | 0.28 | 0.28 | 89 | 1008.8 |
| 20260506104535 | 17 | 112 | 12.9 | 22.5 | 0.00 | 0.28 | 0.28 | 89 | 1008.8 |
| 20260506104035 | 17 | 88 | 14.5 | 24.1 | 0.00 | 0.28 | 0.28 | 89 | 1008.8 |
| 20260506103536 | 17 | 94 | 16.1 | 25.7 | 0.00 | 0.28 | 0.28 | 91 | 1008.8 |
| 20260506103036 | 17 | 90 | 20.9 | 25.7 | 0.00 | 0.28 | 0.28 | 91 | 1008.9 |
| 20260506102536 | 17 | 84 | 14.5 | 20.9 | 0.00 | 0.28 | 0.28 | 92 | 1008.9 |
| 20260506102035 | 17 | 89 | 16.1 | 22.5 | 0.00 | 0.28 | 0.28 | 91 | 1009.0 |
| 20260506101535 | 17 | 97 | 14.5 | 24.1 | 0.00 | 0.28 | 0.28 | 91 | 1009.0 |
| 20260506100537 | 17 | 80 | 17.7 | 25.7 | 0.00 | 0.28 | 0.28 | 92 | 1008.9 |
| 20260506100035 | 17 | 80 | 17.7 | 24.1 | 0.00 | 0.28 | 0.28 | 92 | 1009.0 |
| 20260506095535 | 16 | 66 | 16.1 | 22.5 | 0.00 | 0.28 | 0.28 | 92 | 1008.9 |
| 20260506095035 | 16 | 68 | 16.1 | 22.5 | 0.00 | 0.28 | 0.28 | 93 | 1008.9 |
| 20260506094035 | 16 | 65 | 11.3 | 16.1 | 0.00 | 0.33 | 0.28 | 94 | 1009.2 |
| 20260506093535 | 16 | 83 | 12.9 | 19.3 | 0.00 | 0.33 | 0.28 | 94 | 1009.2 |
| 20260506093035 | 16 | 71 | 11.3 | 19.3 | 0.00 | 0.33 | 0.28 | 94 | 1009.1 |
| 20260506092535 | 16 | 86 | 14.5 | 24.1 | 0.00 | 0.36 | 0.28 | 94 | 1009.1 |
| 20260506092035 | 16 | 78 | 9.7 | 19.3 | 0.00 | 0.36 | 0.28 | 94 | 1009.2 |
| 20260506091035 | 16 | 71 | 9.7 | 22.5 | 0.00 | 0.38 | 0.28 | 94 | 1009.2 |
| 20260506090535 | 16 | 60 | 12.9 | 19.3 | 0.00 | 0.38 | 0.28 | 95 | 1009.2 |
| 20260506090035 | 16 | 75 | 11.3 | 19.3 | 0.00 | 0.41 | 0.28 | 95 | 1009.2 |
| 20260506085535 | 16 | 63 | 8.0 | 12.9 | 0.00 | 0.43 | 0.28 | 95 | 1009.0 |
| 20260506085035 | 16 | 72 | 9.7 | 12.9 | 0.00 | 0.43 | 0.28 | 95 | 1009.2 |
| 20260506084542 | 16 | 91 | 9.7 | 19.3 | 0.00 | 0.43 | 0.28 | 95 | 1009.2 |
| 20260506084035 | 16 | 75 | 12.9 | 20.9 | 0.00 | 0.46 | 0.28 | 95 | 1009.2 |
| 20260506083537 | 16 | 69 | 11.3 | 16.1 | 0.00 | 0.48 | 0.28 | 96 | 1009.2 |
| 20260506083035 | 16 | 60 | 8.0 | 14.5 | 0.00 | 0.51 | 0.28 | 96 | 1009.2 |
| 20260506082035 | 15 | 92 | 9.7 | 12.9 | 0.00 | 0.51 | 0.28 | 96 | 1009.1 |
| 20260506081534 | 15 | 91 | 9.7 | 19.3 | 0.00 | 0.53 | 0.28 | 97 | 1009.1 |
| 20260506081035 | 15 | 86 | 8.0 | 19.3 | 0.00 | 0.56 | 0.28 | 96 | 1009.2 |
| 20260506080535 | 15 | 94 | 9.7 | 14.5 | 0.00 | 0.56 | 0.28 | 97 | 1009.1 |
| 20260506073034 | 15 | 109 | 12.9 | 19.3 | 0.00 | 0.64 | 0.28 | 98 | 1009.1 |
| 20260506072035 | 15 | 76 | 8.0 | 11.3 | 0.03 | 0.66 | 0.28 | 99 | 1009.1 |
| 20260506071538 | 15 | 110 | 8.0 | 12.9 | 0.03 | 0.66 | 0.28 | 99 | 1009.1 |
| 20260506071035 | 15 | 80 | 4.8 | 16.1 | 0.03 | 0.66 | 0.28 | 99 | 1009.1 |
| 20260506062034 | 14 | 78 | 9.7 | 16.1 | 0.05 | 0.66 | 0.25 | 99 | 1009.3 |
| 20260506061035 | 14 | 53 | 4.8 | 8.0 | 0.05 | 0.66 | 0.25 | 99 | 1009.6 |
| 20260506060535 | 14 | 42 | 4.8 | 11.3 | 0.08 | 0.66 | 0.25 | 99 | 1009.4 |
| 20260506051034 | 13 | 110 | 8.0 | 12.9 | 0.13 | 0.61 | 0.20 | 98 | 1009.8 |
| 20260506050536 | 13 | 99 | 11.3 | 19.3 | 0.10 | 0.58 | 0.18 | 98 | 1009.8 |
| 20260506044534 | 13 | 100 | 9.7 | 12.9 | 0.10 | 0.51 | 0.13 | 98 | 1009.7 |
| 20260506043533 | 13 | 118 | 8.0 | 20.9 | 0.10 | 0.51 | 0.10 | 98 | 1009.7 |
| 20260506043034 | 13 | 104 | 11.3 | 19.3 | 0.08 | 0.48 | 0.08 | 98 | 1009.6 |
| 20260506042535 | 13 | 100 | 11.3 | 19.3 | 0.08 | 0.48 | 0.08 | 98 | 1009.4 |
| 20260506042034 | 13 | 103 | 14.5 | 25.7 | 0.08 | 0.48 | 0.08 | 98 | 1009.4 |
| 20260506041534 | 13 | 105 | 14.5 | 24.1 | 0.08 | 0.48 | 0.08 | 98 | 1009.5 |
| 20260506041034 | 13 | 112 | 12.9 | 24.1 | 0.08 | 0.48 | 0.08 | 98 | 1009.5 |
| 20260506040534 | 13 | 103 | 14.5 | 24.1 | 0.08 | 0.48 | 0.08 | 98 | 1009.4 |
| 20260506040035 | 13 | 102 | 14.5 | 19.3 | 0.08 | 0.48 | 0.08 | 98 | 1009.4 |
| 20260506035034 | 13 | 103 | 12.9 | 24.1 | 0.05 | 0.43 | 0.05 | 98 | 1009.4 |
| 20260506034534 | 13 | 88 | 11.3 | 22.5 | 0.03 | 0.43 | 0.03 | 98 | 1009.5 |
| 20260506034033 | 13 | 89 | 9.7 | 19.3 | 0.00 | 0.41 | 0.00 | 98 | 1009.6 |
| 20260506033537 | 13 | 100 | 8.0 | 14.5 | 0.00 | 0.41 | 0.00 | 98 | 1009.6 |
| 20260506033035 | 13 | 84 | 9.7 | 16.1 | 0.00 | 0.41 | 0.00 | 98 | 1009.5 |
| 20260506032534 | 13 | 80 | 11.3 | 12.9 | 0.00 | 0.41 | 0.00 | 98 | 1009.4 |
| 20260506031533 | 13 | 96 | 8.0 | 11.3 | 0.00 | 0.41 | 0.00 | 98 | 1009.5 |
| 20260506031034 | 13 | 73 | 9.7 | 11.3 | 0.00 | 0.41 | 0.00 | 98 | 1009.5 |
| 20260506030034 | 12 | 91 | 4.8 | 11.3 | 0.00 | 0.41 | 0.00 | 98 | 1009.8 |
| 20260506025535 | 12 | 58 | 3.2 | 8.0 | 0.00 | 0.41 | 0.00 | 98 | 1009.8 |
| 20260506025033 | 12 | 61 | 6.4 | 11.3 | 0.00 | 0.41 | 0.00 | 98 | 1009.8 |
| 20260506024533 | 12 | 63 | 4.8 | 11.3 | 0.00 | 0.41 | 0.00 | 98 | 1009.9 |
| 20260506024034 | 12 | 80 | 4.8 | 4.8 | 0.00 | 0.41 | 0.00 | 98 | 1010.1 |
| 20260506023035 | 12 | 72 | 3.2 | 4.8 | 0.00 | 0.41 | 0.00 | 98 | 1010.3 |
| 20260506022534 | 12 | 69 | 3.2 | 4.8 | 0.00 | 0.41 | 0.00 | 98 | 1010.2 |
| 20260506021534 | 12 | 161 | 1.6 | 3.2 | 0.00 | 0.41 | 0.00 | 98 | 1010.5 |
| 20260506021033 | 12 | 161 | 0.0 | 1.6 | 0.00 | 0.41 | 0.00 | 98 | 1010.6 |
| 20260506020534 | 12 | 161 | 0.0 | 0.0 | 0.00 | 0.41 | 0.00 | 98 | 1010.6 |
| 20260506020034 | 12 | 161 | 0.0 | 0.0 | 0.00 | 0.41 | 0.00 | 98 | 1010.6 |
| 20260506015533 | 12 | 161 | 0.0 | 0.0 | 0.00 | 0.41 | 0.00 | 98 | 1010.4 |
| 20260506015033 | 12 | 161 | 0.0 | 0.0 | 0.00 | 0.41 | 0.00 | 98 | 1010.4 |
| 20260506014533 | 12 | 161 | 0.0 | 3.2 | 0.00 | 0.41 | 0.00 | 98 | 1010.4 |
| 20260506013533 | 12 | 162 | 0.0 | 1.6 | 0.00 | 0.41 | 0.00 | 98 | 1010.6 |
| 20260506013034 | 12 | 162 | 0.0 | 1.6 | 0.00 | 0.41 | 0.00 | 97 | 1010.7 |
| 20260506012533 | 12 | 162 | 1.6 | 3.2 | 0.00 | 0.41 | 0.00 | 97 | 1010.7 |
| 20260506012033 | 12 | 163 | 1.6 | 4.8 | 0.00 | 0.41 | 0.00 | 97 | 1010.7 |
| 20260506011533 | 12 | 355 | 0.0 | 0.0 | 0.00 | 0.41 | 0.00 | 97 | 1010.8 |
| 20260506011035 | 12 | 355 | 0.0 | 0.0 | 0.00 | 0.41 | 0.00 | 97 | 1010.9 |
| 20260506005533 | 12 | 355 | 0.0 | 0.0 | 0.00 | 0.41 | 0.00 | 97 | 1010.8 |
| 20260506005033 | 12 | 355 | 0.0 | 0.0 | 0.00 | 0.41 | 0.00 | 97 | 1010.8 |
| 20260506004534 | 12 | 355 | 0.0 | 0.0 | 0.00 | 0.41 | 0.00 | 97 | 1010.9 |
| 20260506004048 | 12 | 355 | 1.6 | 3.2 | 0.00 | 0.41 | 0.00 | 97 | 1010.9 |
| 20260506003533 | 12 | 220 | 0.0 | 3.2 | 0.00 | 0.41 | 0.00 | 97 | 1011.1 |
| 20260506003033 | 12 | 220 | 1.6 | 3.2 | 0.00 | 0.41 | 0.00 | 97 | 1011.2 |
| 20260506002033 | 12 | 257 | 1.6 | 3.2 | 0.00 | 0.41 | 0.00 | 97 | 1011.1 |
| 20260506001533 | 12 | 256 | 3.2 | 3.2 | 0.00 | 0.41 | 0.00 | 97 | 1011.3 |
| 20260506001034 | 12 | 216 | 0.0 | 0.0 | 0.00 | 0.41 | 0.00 | 97 | 1011.2 |
| 20260506000533 | 12 | 216 | 3.2 | 4.8 | 0.00 | 0.41 | 0.00 | 97 | 1011.3 |
| 20260506000033 | 12 | 84 | 0.0 | 0.0 | 0.00 | 0.41 | 0.00 | 97 | 1011.3 |
| 20260505235033 | 12 | 84 | 1.6 | 3.2 | 0.00 | 0.41 | 0.00 | 97 | 1011.3 |
| 20260505234033 | 12 | 183 | 1.6 | 4.8 | 0.00 | 0.41 | 0.00 | 97 | 1011.4 |
| 20260505233033 | 12 | 113 | 4.8 | 4.8 | 0.00 | 0.41 | 0.00 | 97 | 1011.5 |
| 20260505232533 | 12 | 104 | 3.2 | 4.8 | 0.00 | 0.41 | 0.00 | 97 | 1011.6 |
| 20260505232032 | 12 | 86 | 4.8 | 8.0 | 0.00 | 0.41 | 0.00 | 97 | 1011.6 |
| 20260505231532 | 12 | 93 | 3.2 | 8.0 | 0.00 | 0.41 | 0.00 | 97 | 1011.6 |
| 20260505230535 | 12 | 71 | 1.6 | 4.8 | 0.00 | 0.41 | 0.00 | 97 | 1011.5 |
| 20260505230036 | 12 | 71 | 3.2 | 4.8 | 0.00 | 0.41 | 0.00 | 97 | 1011.5 |
| 20260505225033 | 12 | 73 | 3.2 | 4.8 | 0.00 | 0.41 | 0.00 | 97 | 1011.6 |
| 20260505224033 | 12 | 72 | 3.2 | 4.8 | 0.00 | 0.41 | 0.00 | 97 | 1011.5 |
| 20260505223533 | 12 | 63 | 4.8 | 8.0 | 0.00 | 0.41 | 0.00 | 97 | 1011.6 |
| 20260505222533 | 12 | 91 | 3.2 | 4.8 | 0.00 | 0.41 | 0.00 | 97 | 1011.6 |
| 20260505222033 | 12 | 84 | 4.8 | 9.7 | 0.00 | 0.41 | 0.00 | 96 | 1011.6 |
| 20260505221536 | 12 | 88 | 4.8 | 8.0 | 0.00 | 0.41 | 0.00 | 96 | 1011.5 |
| 20260505221033 | 12 | 90 | 4.8 | 8.0 | 0.00 | 0.41 | 0.00 | 96 | 1011.6 |
| 20260505220534 | 12 | 81 | 6.4 | 9.7 | 0.00 | 0.41 | 0.00 | 96 | 1011.6 |
| 20260505215033 | 12 | 93 | 6.4 | 8.0 | 0.00 | 0.41 | 0.41 | 96 | 1011.7 |
| 20260505214533 | 12 | 98 | 3.2 | 4.8 | 0.00 | 0.41 | 0.41 | 96 | 1011.8 |
| 20260505214032 | 12 | 81 | 3.2 | 8.0 | 0.00 | 0.41 | 0.41 | 96 | 1011.9 |
| 20260505213535 | 12 | 86 | 4.8 | 8.0 | 0.00 | 0.41 | 0.41 | 96 | 1012.0 |
| 20260505213034 | 12 | 89 | 4.8 | 9.7 | 0.00 | 0.41 | 0.41 | 96 | 1012.1 |
| 20260505212533 | 12 | 86 | 4.8 | 9.7 | 0.00 | 0.41 | 0.41 | 95 | 1012.2 |
| 20260505212032 | 12 | 97 | 4.8 | 9.7 | 0.00 | 0.41 | 0.41 | 95 | 1012.2 |
| 20260505211036 | 13 | 79 | 4.8 | 11.3 | 0.00 | 0.41 | 0.41 | 95 | 1012.3 |
| 20260505210533 | 13 | 77 | 4.8 | 9.7 | 0.00 | 0.41 | 0.41 | 95 | 1012.3 |
| 20260505210040 | 13 | 78 | 4.8 | 8.0 | 0.00 | 0.41 | 0.41 | 95 | 1012.3 |
| 20260505205534 | 13 | 62 | 8.0 | 9.7 | 0.00 | 0.41 | 0.41 | 95 | 1012.3 |
| 20260505204548 | 13 | 86 | 6.4 | 9.7 | 0.00 | 0.41 | 0.41 | 94 | 1012.3 |
| 20260505204032 | 13 | 79 | 8.0 | 11.3 | 0.00 | 0.41 | 0.41 | 94 | 1012.3 |
| 20260505203534 | 13 | 83 | 4.8 | 11.3 | 0.00 | 0.41 | 0.41 | 94 | 1012.4 |
| 20260505203032 | 13 | 69 | 8.0 | 11.3 | 0.00 | 0.41 | 0.41 | 94 | 1012.3 |
| 20260505202533 | 13 | 71 | 3.2 | 12.9 | 0.00 | 0.41 | 0.41 | 94 | 1012.3 |
| 20260505201533 | 13 | 78 | 4.8 | 8.0 | 0.00 | 0.41 | 0.41 | 93 | 1012.3 |
| 20260505201033 | 13 | 64 | 4.8 | 9.7 | 0.00 | 0.41 | 0.41 | 93 | 1012.3 |
| 20260505200536 | 13 | 64 | 4.8 | 9.7 | 0.00 | 0.41 | 0.41 | 93 | 1012.3 |
| 20260505200048 | 13 | 78 | 4.8 | 11.3 | 0.00 | 0.41 | 0.41 | 92 | 1012.2 |
| 20260505195532 | 13 | 86 | 4.8 | 8.0 | 0.00 | 0.41 | 0.41 | 92 | 1012.2 |
| 20260505195034 | 13 | 82 | 4.8 | 11.3 | 0.00 | 0.41 | 0.41 | 92 | 1012.2 |
| 20260505194533 | 14 | 70 | 4.8 | 12.9 | 0.00 | 0.41 | 0.41 | 91 | 1012.1 |
| 20260505194033 | 14 | 76 | 4.8 | 8.0 | 0.00 | 0.41 | 0.41 | 91 | 1012.1 |
| 20260505193548 | 14 | 70 | 6.4 | 11.3 | 0.00 | 0.41 | 0.41 | 91 | 1012.1 |
| 20260505193032 | 14 | 80 | 6.4 | 14.5 | 0.00 | 0.41 | 0.41 | 91 | 1012.0 |
| 20260505192532 | 14 | 71 | 6.4 | 11.3 | 0.00 | 0.41 | 0.41 | 90 | 1012.0 |
| 20260505192035 | 14 | 69 | 6.4 | 9.7 | 0.00 | 0.41 | 0.41 | 90 | 1012.0 |
| 20260505191533 | 15 | 64 | 6.4 | 11.3 | 0.00 | 0.41 | 0.41 | 90 | 1012.0 |
| 20260505191032 | 15 | 77 | 8.0 | 12.9 | 0.00 | 0.41 | 0.41 | 90 | 1012.0 |
| 20260505190533 | 15 | 67 | 8.0 | 12.9 | 0.00 | 0.41 | 0.41 | 90 | 1012.0 |
| 20260505190033 | 15 | 78 | 3.2 | 11.3 | 0.00 | 0.41 | 0.41 | 90 | 1012.0 |
| 20260505185532 | 15 | 58 | 6.4 | 9.7 | 0.00 | 0.41 | 0.41 | 89 | 1011.9 |
| 20260505185032 | 15 | 83 | 8.0 | 11.3 | 0.00 | 0.41 | 0.41 | 89 | 1011.9 |
| 20260505184532 | 15 | 77 | 9.7 | 12.9 | 0.00 | 0.41 | 0.41 | 89 | 1011.8 |
| 20260505184032 | 15 | 71 | 8.0 | 16.1 | 0.00 | 0.41 | 0.41 | 88 | 1011.9 |
| 20260505183533 | 15 | 67 | 6.4 | 11.3 | 0.00 | 0.41 | 0.41 | 88 | 1012.0 |
| 20260505183032 | 15 | 63 | 6.4 | 11.3 | 0.00 | 0.41 | 0.41 | 88 | 1011.9 |
| 20260505182533 | 15 | 61 | 6.4 | 11.3 | 0.00 | 0.41 | 0.41 | 88 | 1011.8 |
| 20260505182032 | 15 | 52 | 3.2 | 4.8 | 0.00 | 0.41 | 0.41 | 87 | 1011.8 |
| 20260505181533 | 15 | 76 | 4.8 | 8.0 | 0.00 | 0.41 | 0.41 | 87 | 1011.7 |
| 20260505181032 | 16 | 65 | 8.0 | 11.3 | 0.00 | 0.41 | 0.41 | 86 | 1011.8 |
| 20260505180532 | 16 | 66 | 6.4 | 11.3 | 0.00 | 0.41 | 0.41 | 86 | 1011.8 |
| 20260505175535 | 16 | 62 | 9.7 | 14.5 | 0.00 | 0.41 | 0.41 | 86 | 1011.7 |
| 20260505175032 | 16 | 62 | 9.7 | 12.9 | 0.00 | 0.41 | 0.41 | 86 | 1011.5 |
| 20260505174532 | 16 | 59 | 9.7 | 12.9 | 0.00 | 0.41 | 0.41 | 86 | 1011.6 |
| 20260505174033 | 16 | 65 | 8.0 | 16.1 | 0.00 | 0.41 | 0.41 | 85 | 1011.6 |
| 20260505173533 | 16 | 70 | 8.0 | 12.9 | 0.00 | 0.41 | 0.41 | 85 | 1011.6 |
| 20260505172531 | 16 | 58 | 8.0 | 16.1 | 0.00 | 0.41 | 0.41 | 85 | 1011.5 |
| 20260505172031 | 16 | 57 | 11.3 | 19.3 | 0.00 | 0.41 | 0.41 | 85 | 1011.5 |
| 20260505171532 | 16 | 64 | 4.8 | 14.5 | 0.00 | 0.41 | 0.41 | 85 | 1011.5 |
| 20260505171032 | 16 | 52 | 8.0 | 19.3 | 0.00 | 0.41 | 0.41 | 85 | 1011.4 |
| 20260505170532 | 16 | 66 | 11.3 | 19.3 | 0.00 | 0.41 | 0.41 | 86 | 1011.4 |
| 20260505170032 | 16 | 80 | 9.7 | 16.1 | 0.00 | 0.41 | 0.41 | 86 | 1011.5 |
| 20260505165533 | 16 | 62 | 12.9 | 19.3 | 0.00 | 0.41 | 0.41 | 86 | 1011.5 |
| 20260505164532 | 16 | 75 | 12.9 | 19.3 | 0.00 | 0.41 | 0.41 | 85 | 1011.5 |
| 20260505164032 | 16 | 70 | 14.5 | 24.1 | 0.00 | 0.41 | 0.41 | 84 | 1011.5 |